• In Hungary
  • List of Countries
  • For 7 days
  • Water Temperature
  • Satellite Maps
  • Weather Map
  • News
  • Weather Widgets
  • user-avatar
    Login

    Hourly Weather El Quseir

    Today, 20 August, Sunday

    Time Temperature Precipitation Wind Pressure Humidity
    00:00 +38°C° 0 mm 6 mps 754 mmHg 22%
    01:00 +38°C° 0 mm 6 mps 754 mmHg 22%
    02:00 +38°C° 0 mm 6 mps 754 mmHg 22%
    03:00 +36°C° 0 mm 6 mps 754 mmHg 23%
    04:00 +35°C° 0 mm 6 mps 754 mmHg 24%
    05:00 +35°C° 0 mm 6 mps 754 mmHg 26%
    06:00 +36°C° 0 mm 6 mps 754 mmHg 24%
    07:00 +38°C° 0 mm 7 mps 754 mmHg 23%
    08:00 +39°C° 0 mm 7 mps 754 mmHg 22%
    09:00 +41°C° 0 mm 7 mps 754 mmHg 21%
    10:00 +43°C° 0 mm 7 mps 754 mmHg 20%
    11:00 +44°C° 0 mm 7 mps 754 mmHg 18%
    12:00 +45°C° 0 mm 8 mps 754 mmHg 19%
    13:00 +45°C° 0 mm 8 mps 753 mmHg 19%
    14:00 +46°C° 0 mm 8 mps 753 mmHg 19%
    15:00 +45°C° 0 mm 7 mps 753 mmHg 20%
    16:00 +45°C° 0 mm 7 mps 753 mmHg 21%
    17:00 +44°C° 0 mm 7 mps 752 mmHg 22%
    18:00 +43°C° 0 mm 7 mps 753 mmHg 25%
    19:00 +41°C° 0 mm 7 mps 753 mmHg 28%
    20:00 +40°C° 0 mm 6 mps 753 mmHg 31%
    21:00 +39°C° 0 mm 6 mps 753 mmHg 31%
    22:00 +39°C° 0 mm 6 mps 753 mmHg 31%
    23:00 +39°C° 0 mm 6 mps 753 mmHg 31%

    Tomorrow, 21 August, Monday

    Time Temperature Precipitation Wind Pressure Humidity
    00:00 +38°C° 0 mm 7 mps 753 mmHg 31%
    01:00 +38°C° 0 mm 7 mps 753 mmHg 30%
    02:00 +38°C° 0 mm 8 mps 753 mmHg 30%
    03:00 +37°C° 0 mm 8 mps 753 mmHg 33%
    04:00 +35°C° 0 mm 8 mps 753 mmHg 36%
    05:00 +35°C° 0 mm 9 mps 753 mmHg 39%
    06:00 +37°C° 0 mm 9 mps 753 mmHg 36%
    07:00 +38°C° 0 mm 9 mps 753 mmHg 32%
    08:00 +39°C° 0 mm 9 mps 753 mmHg 29%
    09:00 +40°C° 0 mm 9 mps 753 mmHg 26%
    10:00 +43°C° 0 mm 9 mps 753 mmHg 24%
    11:00 +44°C° 0 mm 9 mps 753 mmHg 21%
    12:00 +45°C° 0 mm 9 mps 753 mmHg 20%
    13:00 +45°C° 0 mm 9 mps 752 mmHg 19%
    14:00 +47°C° 0 mm 9 mps 752 mmHg 18%
    15:00 +45°C° 0 mm 9 mps 751 mmHg 19%
    16:00 +45°C° 0 mm 10 mps 751 mmHg 19%
    17:00 +44°C° 0 mm 10 mps 751 mmHg 19%
    18:00 +43°C° 0 mm 9 mps 751 mmHg 21%
    19:00 +42°C° 0 mm 9 mps 752 mmHg 23%
    20:00 +40°C° 0 mm 8 mps 752 mmHg 25%
    21:00 +39°C° 0 mm 8 mps 752 mmHg 25%
    22:00 +39°C° 0 mm 8 mps 752 mmHg 24%
    23:00 +39°C° 0 mm 7 mps 752 mmHg 24%

    Day after tomorrow, 22 August, Tuesday

    Time Temperature Precipitation Wind Pressure Humidity
    00:00 +38°C° 0 mm 8 mps 752 mmHg 25%
    01:00 +37°C° 0 mm 8 mps 752 mmHg 26%
    02:00 +37°C° 0 mm 8 mps 752 mmHg 27%
    03:00 +35°C° 0 mm 8 mps 752 mmHg 30%
    04:00 +34°C° 0 mm 8 mps 752 mmHg 32%
    05:00 +34°C° 0 mm 8 mps 753 mmHg 35%
    06:00 +35°C° 0 mm 8 mps 753 mmHg 31%
    07:00 +38°C° 0 mm 9 mps 753 mmHg 26%
    08:00 +39°C° 0 mm 9 mps 753 mmHg 22%
    09:00 +40°C° 0 mm 9 mps 753 mmHg 21%
    10:00 +43°C° 0 mm 9 mps 753 mmHg 19%
    11:00 +44°C° 0 mm 9 mps 753 mmHg 18%
    12:00 +44°C° 0 mm 9 mps 752 mmHg 18%
    13:00 +45°C° 0 mm 9 mps 752 mmHg 18%
    14:00 +45°C° 0 mm 9 mps 751 mmHg 18%
    15:00 +45°C° 0 mm 9 mps 751 mmHg 19%
    16:00 +44°C° 0 mm 9 mps 751 mmHg 20%
    17:00 +44°C° 0 mm 9 mps 750 mmHg 20%
    18:00 +43°C° 0 mm 9 mps 751 mmHg 23%
    19:00 +41°C° 0 mm 8 mps 751 mmHg 25%
    20:00 +40°C° 0 mm 8 mps 751 mmHg 27%
    21:00 +39°C° 0 mm 7 mps 751 mmHg 27%
    22:00 +38°C° 0 mm 7 mps 751 mmHg 28%
    23:00 +38°C° 0 mm 7 mps 752 mmHg 28%

    23 August, Wednesday

    Time Temperature Precipitation Wind Pressure Humidity
    00:00 +36°C° 0 mm 7 mps 751 mmHg 30%
    01:00 +37°C° 0 mm 8 mps 751 mmHg 31%
    02:00 +35°C° 0 mm 8 mps 751 mmHg 32%
    03:00 +35°C° 0 mm 8 mps 751 mmHg 33%
    04:00 +34°C° 0 mm 8 mps 752 mmHg 33%
    05:00 +34°C° 0 mm 8 mps 752 mmHg 34%
    06:00 +35°C° 0 mm 8 mps 752 mmHg 30%
    07:00 +37°C° 0 mm 8 mps 752 mmHg 26%
    08:00 +38°C° 0 mm 8 mps 753 mmHg 23%
    09:00 +40°C° 0 mm 8 mps 752 mmHg 21%
    10:00 +41°C° 0 mm 8 mps 752 mmHg 20%
    11:00 +43°C° 0 mm 8 mps 752 mmHg 18%
    12:00 +44°C° 0 mm 8 mps 752 mmHg 18%
    13:00 +45°C° 0 mm 8 mps 751 mmHg 18%
    14:00 +45°C° 0 mm 8 mps 750 mmHg 18%
    15:00 +45°C° 0 mm 8 mps 750 mmHg 19%
    16:00 +44°C° 0 mm 8 mps 750 mmHg 20%
    17:00 +44°C° 0 mm 8 mps 750 mmHg 22%
    18:00 +43°C° 0 mm 7 mps 751 mmHg 24%
    19:00 +41°C° 0 mm 7 mps 751 mmHg 26%
    20:00 +40°C° 0 mm 7 mps 751 mmHg 28%
    21:00 +39°C° 0 mm 7 mps 751 mmHg 29%
    22:00 +39°C° 0 mm 7 mps 751 mmHg 30%
    23:00 +38°C° 0 mm 7 mps 751 mmHg 31%

    24 August, Thursday

    Time Temperature Precipitation Wind Pressure Humidity
    00:00 +38°C° 0 mm 7 mps 751 mmHg 31%
    01:00 +36°C° 0 mm 7 mps 751 mmHg 31%
    02:00 +36°C° 0 mm 7 mps 751 mmHg 31%
    03:00 +37°C° 0 mm 8 mps 751 mmHg 33%
    04:00 +35°C° 0 mm 8 mps 751 mmHg 34%
    05:00 +35°C° 0 mm 8 mps 751 mmHg 36%
    06:00 +37°C° 0 mm 8 mps 751 mmHg 33%
    07:00 +39°C° 0 mm 8 mps 751 mmHg 29%
    08:00 +40°C° 0 mm 8 mps 752 mmHg 26%
    09:00 +43°C° 0 mm 8 mps 752 mmHg 23%
    10:00 +44°C° 0 mm 8 mps 752 mmHg 21%
    11:00 +46°C° 0 mm 8 mps 752 mmHg 19%
    12:00 +46°C° 0 mm 8 mps 751 mmHg 19%
    13:00 +48°C° 0 mm 8 mps 751 mmHg 19%
    14:00 +48°C° 0 mm 8 mps 750 mmHg 19%
    15:00 +48°C° 0 mm 8 mps 750 mmHg 20%
    16:00 +46°C° 0 mm 8 mps 750 mmHg 21%
    17:00 +46°C° 0 mm 8 mps 750 mmHg 22%
    18:00 +45°C° 0 mm 7 mps 750 mmHg 24%
    19:00 +43°C° 0 mm 7 mps 750 mmHg 27%
    20:00 +41°C° 0 mm 7 mps 751 mmHg 29%
    21:00 +41°C° 0 mm 7 mps 751 mmHg 29%
    22:00 +41°C° 0 mm 7 mps 751 mmHg 29%
    23:00 +40°C° 0 mm 7 mps 750 mmHg 28%

    25 August, Friday

    Time Temperature Precipitation Wind Pressure Humidity
    00:00 +40°C° 0 mm 7 mps 750 mmHg 29%
    01:00 +39°C° 0 mm 7 mps 750 mmHg 29%
    02:00 +39°C° 0 mm 6 mps 750 mmHg 30%
    03:00 +38°C° 0 mm 6 mps 750 mmHg 31%
    04:00 +38°C° 0 mm 7 mps 751 mmHg 32%
    05:00 +38°C° 0 mm 7 mps 751 mmHg 33%
    06:00 +39°C° 0 mm 8 mps 751 mmHg 30%
    07:00 +41°C° 0 mm 8 mps 751 mmHg 28%
    08:00 +43°C° 0 mm 8 mps 752 mmHg 26%
    09:00 +45°C° 0 mm 8 mps 752 mmHg 23%
    10:00 +46°C° 0 mm 8 mps 752 mmHg 21%
    11:00 +49°C° 0 mm 8 mps 751 mmHg 18%
    12:00 +49°C° 0 mm 8 mps 751 mmHg 18%
    13:00 +49°C° 0 mm 7 mps 751 mmHg 18%
    14:00 +50°C° 0 mm 7 mps 750 mmHg 17%
    15:00 +49°C° 0 mm 7 mps 750 mmHg 18%
    16:00 +49°C° 0 mm 7 mps 750 mmHg 19%
    17:00 +47°C° 0 mm 7 mps 750 mmHg 20%
    18:00 +46°C° 0 mm 6 mps 750 mmHg 23%
    19:00 +44°C° 0 mm 6 mps 750 mmHg 26%
    20:00 +42°C° 0 mm 6 mps 751 mmHg 29%
    21:00 +41°C° 0 mm 6 mps 751 mmHg 29%
    22:00 +41°C° 0 mm 6 mps 751 mmHg 29%
    23:00 +40°C° 0 mm 6 mps 751 mmHg 29%
    Show more